Year,Month,Day,Hour,Minute,Value (Times are PST for temperature in C)
2014,04,15,00,00,9.90
2014,04,15,00,01,9.90
2014,04,15,00,02,9.80
2014,04,15,00,03,9.80
2014,04,15,00,04,9.80
2014,04,15,00,05,9.80
2014,04,15,00,06,9.80
2014,04,15,00,07,9.90
2014,04,15,00,08,9.90
2014,04,15,00,09,9.90
2014,04,15,00,10,10.00
2014,04,15,00,11,10.00
2014,04,15,00,12,10.00
2014,04,15,00,13,10.00
2014,04,15,00,14,10.00
2014,04,15,00,15,10.00
2014,04,15,00,16,9.90
2014,04,15,00,17,9.90
2014,04,15,00,18,9.90
2014,04,15,00,19,9.90
2014,04,15,00,20,9.90
2014,04,15,00,21,9.90
2014,04,15,00,22,10.00
2014,04,15,00,23,10.00
2014,04,15,00,24,10.00
2014,04,15,00,25,10.00
2014,04,15,00,26,10.00
2014,04,15,00,27,10.00
2014,04,15,00,28,10.00
2014,04,15,00,29,10.00
2014,04,15,00,30,10.00
2014,04,15,00,31,10.00
2014,04,15,00,32,10.00
2014,04,15,00,33,10.00
2014,04,15,00,34,10.00
2014,04,15,00,35,10.00
2014,04,15,00,36,10.00
2014,04,15,00,37,10.00
2014,04,15,00,38,10.00
2014,04,15,00,39,10.00
2014,04,15,00,40,10.00
2014,04,15,00,41,10.00
2014,04,15,00,42,10.00
2014,04,15,00,43,9.90
2014,04,15,00,44,9.90
2014,04,15,00,45,9.90
2014,04,15,00,46,9.90
2014,04,15,00,47,9.90
2014,04,15,00,48,9.90
2014,04,15,00,49,9.90
2014,04,15,00,50,9.90
2014,04,15,00,51,9.90
2014,04,15,00,52,10.00
2014,04,15,00,53,10.00
2014,04,15,00,54,10.00
2014,04,15,00,55,10.00
2014,04,15,00,56,10.00
2014,04,15,00,57,10.00
2014,04,15,00,58,10.00
2014,04,15,00,59,10.00
2014,04,15,01,00,10.00
2014,04,15,01,01,10.00
2014,04,15,01,02,10.00
2014,04,15,01,03,10.00
2014,04,15,01,04,10.00
2014,04,15,01,05,10.00
2014,04,15,01,06,10.00
2014,04,15,01,07,10.00
2014,04,15,01,08,10.00
2014,04,15,01,09,10.00
2014,04,15,01,10,10.00
2014,04,15,01,11,10.00
2014,04,15,01,12,10.00
2014,04,15,01,13,10.00
2014,04,15,01,14,10.10
2014,04,15,01,15,10.10
2014,04,15,01,16,10.10
2014,04,15,01,17,10.10
2014,04,15,01,18,10.10
2014,04,15,01,19,10.00
2014,04,15,01,20,10.00
2014,04,15,01,21,10.00
2014,04,15,01,22,10.00
2014,04,15,01,23,10.00
2014,04,15,01,24,10.00
2014,04,15,01,25,10.00
2014,04,15,01,26,10.00
2014,04,15,01,27,9.90
2014,04,15,01,28,9.90
2014,04,15,01,29,9.90
2014,04,15,01,30,9.90
2014,04,15,01,31,9.90
2014,04,15,01,32,9.90
2014,04,15,01,33,9.90
2014,04,15,01,34,9.90
2014,04,15,01,35,10.00
2014,04,15,01,36,10.00
2014,04,15,01,37,10.00
2014,04,15,01,38,10.00
2014,04,15,01,39,9.90
2014,04,15,01,40,9.90
2014,04,15,01,41,9.90
2014,04,15,01,42,9.90
2014,04,15,01,43,9.90
2014,04,15,01,44,9.80
2014,04,15,01,45,9.80
2014,04,15,01,46,9.80
2014,04,15,01,47,9.80
2014,04,15,01,48,9.80
2014,04,15,01,49,9.80
2014,04,15,01,50,9.80
2014,04,15,01,51,9.80
2014,04,15,01,52,9.80
2014,04,15,01,53,9.80
2014,04,15,01,54,9.80
2014,04,15,01,55,9.80
2014,04,15,01,56,9.90
2014,04,15,01,57,9.90
2014,04,15,01,58,9.90
2014,04,15,01,59,9.90
2014,04,15,02,00,9.80
2014,04,15,02,01,9.80
2014,04,15,02,02,9.80
2014,04,15,02,03,9.80
2014,04,15,02,04,9.70
2014,04,15,02,05,9.70
2014,04,15,02,06,9.70
2014,04,15,02,07,9.70
2014,04,15,02,08,9.60
2014,04,15,02,09,9.60
2014,04,15,02,10,9.60
2014,04,15,02,11,9.60
2014,04,15,02,12,9.60
2014,04,15,02,13,9.60
2014,04,15,02,14,9.60
2014,04,15,02,15,9.60
2014,04,15,02,16,9.60
2014,04,15,02,17,9.60
2014,04,15,02,18,9.60
2014,04,15,02,19,9.60
2014,04,15,02,20,9.60
2014,04,15,02,21,9.60
2014,04,15,02,22,9.60
2014,04,15,02,23,9.60
2014,04,15,02,24,9.60
2014,04,15,02,25,9.60
2014,04,15,02,26,9.60
2014,04,15,02,27,9.60
2014,04,15,02,28,9.60
2014,04,15,02,29,9.60
2014,04,15,02,30,9.60
2014,04,15,02,31,9.60
2014,04,15,02,32,9.60
2014,04,15,02,33,9.60
2014,04,15,02,34,9.50
2014,04,15,02,35,9.50
2014,04,15,02,36,9.50
2014,04,15,02,37,9.50
2014,04,15,02,38,9.40
2014,04,15,02,39,9.40
2014,04,15,02,40,9.40
2014,04,15,02,41,9.40
2014,04,15,02,42,9.40
2014,04,15,02,43,9.50
2014,04,15,02,44,9.50
2014,04,15,02,45,9.60
2014,04,15,02,46,9.60
2014,04,15,02,47,9.60
2014,04,15,02,48,9.60
2014,04,15,02,49,9.60
2014,04,15,02,50,9.70
2014,04,15,02,51,9.70
2014,04,15,02,52,9.70
2014,04,15,02,53,9.60
2014,04,15,02,54,9.70
2014,04,15,02,55,9.60
2014,04,15,02,56,9.60
2014,04,15,02,57,9.60
2014,04,15,02,58,9.60
2014,04,15,02,59,9.60
2014,04,15,03,00,9.60
2014,04,15,03,01,9.50
2014,04,15,03,02,9.50
2014,04,15,03,03,9.50
2014,04,15,03,04,9.50
2014,04,15,03,05,9.40
2014,04,15,03,06,9.40
2014,04,15,03,07,9.40
2014,04,15,03,08,9.40
2014,04,15,03,09,9.40
2014,04,15,03,10,9.40
2014,04,15,03,11,9.40
2014,04,15,03,12,9.40
2014,04,15,03,13,9.40
2014,04,15,03,14,9.40
2014,04,15,03,15,9.40
2014,04,15,03,16,9.30
2014,04,15,03,17,9.30
2014,04,15,03,18,9.30
2014,04,15,03,19,9.30
2014,04,15,03,20,9.20
2014,04,15,03,21,9.20
2014,04,15,03,22,9.20
2014,04,15,03,23,9.10
2014,04,15,03,24,9.10
2014,04,15,03,25,9.10
2014,04,15,03,26,9.10
2014,04,15,03,27,9.10
2014,04,15,03,28,9.10
2014,04,15,03,29,9.10
2014,04,15,03,30,9.10
2014,04,15,03,31,9.10
2014,04,15,03,32,9.10
2014,04,15,03,33,9.20
2014,04,15,03,34,9.20
2014,04,15,03,35,9.20
2014,04,15,03,36,9.20
2014,04,15,03,37,9.20
2014,04,15,03,38,9.20
2014,04,15,03,39,9.20
2014,04,15,03,40,9.20
2014,04,15,03,41,9.20
2014,04,15,03,42,9.20
2014,04,15,03,43,9.20
2014,04,15,03,44,9.20
2014,04,15,03,45,9.20
2014,04,15,03,46,9.20
2014,04,15,03,47,9.20
2014,04,15,03,48,9.20
2014,04,15,03,49,9.20
2014,04,15,03,50,9.20
2014,04,15,03,51,9.20
2014,04,15,03,52,9.20
2014,04,15,03,53,9.20
2014,04,15,03,54,9.10
2014,04,15,03,55,9.10
2014,04,15,03,56,9.10
2014,04,15,03,57,9.10
2014,04,15,03,58,9.10
2014,04,15,03,59,9.10
2014,04,15,04,00,9.20
2014,04,15,04,01,9.10
2014,04,15,04,02,9.10
2014,04,15,04,03,9.10
2014,04,15,04,04,9.10
2014,04,15,04,05,9.10
2014,04,15,04,06,9.10
2014,04,15,04,07,9.10
2014,04,15,04,08,9.10
2014,04,15,04,09,9.20
2014,04,15,04,10,9.10
2014,04,15,04,11,9.10
2014,04,15,04,12,9.10
2014,04,15,04,13,9.10
2014,04,15,04,14,9.10
2014,04,15,04,15,9.10
2014,04,15,04,16,9.00
2014,04,15,04,17,9.00
2014,04,15,04,18,8.90
2014,04,15,04,19,8.80
2014,04,15,04,20,8.80
2014,04,15,04,21,8.80
2014,04,15,04,22,8.80
2014,04,15,04,23,8.80
2014,04,15,04,24,8.80
2014,04,15,04,25,8.70
2014,04,15,04,26,8.80
2014,04,15,04,27,8.80
2014,04,15,04,28,8.80
2014,04,15,04,29,8.80
2014,04,15,04,30,8.90
2014,04,15,04,31,8.90
2014,04,15,04,32,8.90
2014,04,15,04,33,8.90
2014,04,15,04,34,8.90
2014,04,15,04,35,8.80
2014,04,15,04,36,8.80
2014,04,15,04,37,8.80
2014,04,15,04,38,8.70
2014,04,15,04,39,8.70
2014,04,15,04,40,8.70
2014,04,15,04,41,8.70
2014,04,15,04,42,8.70
2014,04,15,04,43,8.60
2014,04,15,04,44,8.60
2014,04,15,04,45,8.60
2014,04,15,04,46,8.60
2014,04,15,04,47,8.60
2014,04,15,04,48,8.60
2014,04,15,04,49,8.60
2014,04,15,04,50,8.60
2014,04,15,04,51,8.50
2014,04,15,04,52,8.50
2014,04,15,04,53,8.40
2014,04,15,04,54,8.40
2014,04,15,04,55,8.30
2014,04,15,04,56,8.30
2014,04,15,04,57,8.30
2014,04,15,04,58,8.20
2014,04,15,04,59,8.20
2014,04,15,05,00,8.20
2014,04,15,05,01,8.20
2014,04,15,05,02,8.20
2014,04,15,05,03,8.20
2014,04,15,05,04,8.20
2014,04,15,05,05,8.20
2014,04,15,05,06,8.20
2014,04,15,05,07,8.20
2014,04,15,05,08,8.20
2014,04,15,05,09,8.20
2014,04,15,05,10,8.20
2014,04,15,05,11,8.20
2014,04,15,05,12,8.20
2014,04,15,05,13,8.20
2014,04,15,05,14,8.10
2014,04,15,05,15,8.10
2014,04,15,05,16,8.10
2014,04,15,05,17,8.10
2014,04,15,05,18,8.20
2014,04,15,05,19,8.20
2014,04,15,05,20,8.20
2014,04,15,05,21,8.30
2014,04,15,05,22,8.30
2014,04,15,05,23,8.30
2014,04,15,05,24,8.30
2014,04,15,05,25,8.30
2014,04,15,05,26,8.30
2014,04,15,05,27,8.30
2014,04,15,05,28,8.30
2014,04,15,05,29,8.30
2014,04,15,05,30,8.30
2014,04,15,05,31,8.30
2014,04,15,05,32,8.30
2014,04,15,05,33,8.30
2014,04,15,05,34,8.30
2014,04,15,05,35,8.20
2014,04,15,05,36,8.20
2014,04,15,05,37,8.20
2014,04,15,05,38,8.10
2014,04,15,05,39,8.10
2014,04,15,05,40,8.10
2014,04,15,05,41,8.00
2014,04,15,05,42,8.00
2014,04,15,05,43,8.00
2014,04,15,05,44,8.00
2014,04,15,05,45,8.00
2014,04,15,05,46,8.00
2014,04,15,05,47,8.00
2014,04,15,05,48,8.00
2014,04,15,05,49,8.10
2014,04,15,05,50,8.10
2014,04,15,05,51,8.10
2014,04,15,05,52,8.00
2014,04,15,05,53,8.00
2014,04,15,05,54,8.00
2014,04,15,05,55,8.00
2014,04,15,05,56,8.00
2014,04,15,05,57,8.10
2014,04,15,05,58,8.10
2014,04,15,05,59,8.10
2014,04,15,06,00,8.10
2014,04,15,06,01,8.10
2014,04,15,06,02,8.10
2014,04,15,06,03,8.10
2014,04,15,06,04,8.10
2014,04,15,06,05,8.10
2014,04,15,06,06,8.10
2014,04,15,06,07,8.00
2014,04,15,06,08,8.00
2014,04,15,06,09,7.90
2014,04,15,06,10,7.90
2014,04,15,06,11,7.80
2014,04,15,06,12,7.80
2014,04,15,06,13,7.80
2014,04,15,06,14,7.80
2014,04,15,06,15,7.80
2014,04,15,06,16,7.80
2014,04,15,06,17,7.80
2014,04,15,06,18,7.80
2014,04,15,06,19,7.80
2014,04,15,06,20,7.80
2014,04,15,06,21,7.80
2014,04,15,06,22,7.90
2014,04,15,06,23,7.90
2014,04,15,06,24,7.90
2014,04,15,06,25,7.90
2014,04,15,06,26,7.90
2014,04,15,06,27,7.80
2014,04,15,06,28,7.80
2014,04,15,06,29,7.80
2014,04,15,06,30,7.80
2014,04,15,06,31,7.80
2014,04,15,06,32,7.80
2014,04,15,06,33,7.80
2014,04,15,06,34,7.80
2014,04,15,06,35,7.80
2014,04,15,06,36,7.80
2014,04,15,06,37,7.80
2014,04,15,06,38,7.90
2014,04,15,06,39,7.80
2014,04,15,06,40,7.80
2014,04,15,06,41,7.80
2014,04,15,06,42,7.80
2014,04,15,06,43,7.80
2014,04,15,06,44,7.80
2014,04,15,06,45,7.80
2014,04,15,06,46,7.80
2014,04,15,06,47,7.80
2014,04,15,06,48,7.80
2014,04,15,06,49,7.80
2014,04,15,06,50,7.80
2014,04,15,06,51,7.80
2014,04,15,06,52,7.80
2014,04,15,06,53,7.90
2014,04,15,06,54,7.90
2014,04,15,06,55,7.90
2014,04,15,06,56,7.90
2014,04,15,06,57,7.90
2014,04,15,06,58,7.90
2014,04,15,06,59,8.00
2014,04,15,07,00,8.00
2014,04,15,07,01,8.00
2014,04,15,07,02,8.00
2014,04,15,07,03,8.10
2014,04,15,07,04,8.10
2014,04,15,07,05,8.10
2014,04,15,07,06,8.10
2014,04,15,07,07,8.10
2014,04,15,07,08,8.20
2014,04,15,07,09,8.20
2014,04,15,07,10,8.20
2014,04,15,07,11,8.30
2014,04,15,07,12,8.30
2014,04,15,07,13,8.40
2014,04,15,07,14,8.40
2014,04,15,07,15,8.50
2014,04,15,07,16,8.50
2014,04,15,07,17,8.60
2014,04,15,07,18,8.70
2014,04,15,07,19,8.70
2014,04,15,07,20,8.80
2014,04,15,07,21,8.80
2014,04,15,07,22,8.80
2014,04,15,07,23,8.90
2014,04,15,07,24,8.90
2014,04,15,07,25,8.90
2014,04,15,07,26,9.00
2014,04,15,07,27,9.00
2014,04,15,07,28,9.10
2014,04,15,07,29,9.10
2014,04,15,07,30,9.10
2014,04,15,07,31,9.20
2014,04,15,07,32,9.20
2014,04,15,07,33,9.20
2014,04,15,07,34,9.20
2014,04,15,07,35,9.20
2014,04,15,07,36,9.20
2014,04,15,07,37,9.20
2014,04,15,07,38,9.30
2014,04,15,07,39,9.30
2014,04,15,07,40,9.30
2014,04,15,07,41,9.30
2014,04,15,07,42,9.30
2014,04,15,07,43,9.40
2014,04,15,07,44,9.40
2014,04,15,07,45,9.40
2014,04,15,07,46,9.40
2014,04,15,07,47,9.40
2014,04,15,07,48,9.50
2014,04,15,07,49,9.50
2014,04,15,07,50,9.50
2014,04,15,07,51,9.50
2014,04,15,07,52,9.60
2014,04,15,07,53,9.60
2014,04,15,07,54,9.60
2014,04,15,07,55,9.60
2014,04,15,07,56,9.60
2014,04,15,07,57,9.70
2014,04,15,07,58,9.70
2014,04,15,07,59,9.70
2014,04,15,08,00,9.70
2014,04,15,08,01,9.80
2014,04,15,08,02,9.80
2014,04,15,08,03,9.80
2014,04,15,08,04,9.80
2014,04,15,08,05,9.80
2014,04,15,08,06,9.80
2014,04,15,08,07,9.90
2014,04,15,08,08,9.90
2014,04,15,08,09,9.90
2014,04,15,08,10,9.90
2014,04,15,08,11,10.00
2014,04,15,08,12,10.00
2014,04,15,08,13,10.10
2014,04,15,08,14,10.10
2014,04,15,08,15,10.10
2014,04,15,08,16,10.10
2014,04,15,08,17,10.10
2014,04,15,08,18,10.10
2014,04,15,08,19,10.20
2014,04,15,08,20,10.20
2014,04,15,08,21,10.20
2014,04,15,08,22,10.30
2014,04,15,08,23,10.30
2014,04,15,08,24,10.30
2014,04,15,08,25,10.30
2014,04,15,08,26,10.30
2014,04,15,08,27,10.30
2014,04,15,08,28,10.30
2014,04,15,08,29,10.30
2014,04,15,08,30,10.40
2014,04,15,08,31,10.40
2014,04,15,08,32,10.40
2014,04,15,08,33,10.40
2014,04,15,08,34,10.50
2014,04,15,08,35,10.50
2014,04,15,08,36,10.60
2014,04,15,08,37,10.60
2014,04,15,08,38,10.60
2014,04,15,08,39,10.60
2014,04,15,08,40,10.70
2014,04,15,08,41,10.70
2014,04,15,08,42,10.70
2014,04,15,08,43,10.80
2014,04,15,08,44,10.80
2014,04,15,08,45,10.80
2014,04,15,08,46,10.80
2014,04,15,08,47,10.70
2014,04,15,08,48,10.70
2014,04,15,08,49,10.70
2014,04,15,08,50,10.70
2014,04,15,08,51,10.70
2014,04,15,08,52,10.60
2014,04,15,08,53,10.60
2014,04,15,08,54,10.60
2014,04,15,08,55,10.70
2014,04,15,08,56,10.70
2014,04,15,08,57,10.70
2014,04,15,08,58,10.70
2014,04,15,08,59,10.60
2014,04,15,09,00,10.60
2014,04,15,09,01,10.60
2014,04,15,09,02,10.60
2014,04,15,09,03,10.60
2014,04,15,09,04,10.60
2014,04,15,09,05,10.60
2014,04,15,09,06,10.60
2014,04,15,09,07,10.60
2014,04,15,09,08,10.60
2014,04,15,09,09,10.60
2014,04,15,09,10,10.70
2014,04,15,09,11,10.70
2014,04,15,09,12,10.70
2014,04,15,09,13,10.70
2014,04,15,09,14,10.70
2014,04,15,09,15,10.70
2014,04,15,09,16,10.80
2014,04,15,09,17,10.70
2014,04,15,09,18,10.70
2014,04,15,09,19,10.70
2014,04,15,09,20,10.70
2014,04,15,09,21,10.70
2014,04,15,09,22,10.70
2014,04,15,09,23,10.70
2014,04,15,09,24,10.70
2014,04,15,09,25,10.70
2014,04,15,09,26,10.70
2014,04,15,09,27,10.70
2014,04,15,09,28,10.70
2014,04,15,09,29,10.70
2014,04,15,09,30,10.70
2014,04,15,09,31,10.70
2014,04,15,09,32,10.70
2014,04,15,09,33,10.70
2014,04,15,09,34,10.70
2014,04,15,09,35,10.80
2014,04,15,09,36,10.80
2014,04,15,09,37,10.80
2014,04,15,09,38,10.80
2014,04,15,09,39,10.80
2014,04,15,09,40,10.80
2014,04,15,09,41,10.80
2014,04,15,09,42,10.80
2014,04,15,09,43,10.80
2014,04,15,09,44,10.80
2014,04,15,09,45,10.80
2014,04,15,09,46,10.90
2014,04,15,09,47,11.00
2014,04,15,09,48,11.10
2014,04,15,09,49,11.20
2014,04,15,09,50,11.20
2014,04,15,09,51,11.30
2014,04,15,09,52,11.30
2014,04,15,09,53,11.50
2014,04,15,09,54,11.60
2014,04,15,09,55,11.60
2014,04,15,09,56,11.70
2014,04,15,09,57,11.70
2014,04,15,09,58,11.80
2014,04,15,09,59,11.80
2014,04,15,10,00,11.90
2014,04,15,10,01,11.90
2014,04,15,10,02,11.90
2014,04,15,10,03,11.90
2014,04,15,10,04,11.80
2014,04,15,10,05,11.80
2014,04,15,10,06,11.90
2014,04,15,10,07,11.90
2014,04,15,10,08,12.00
2014,04,15,10,09,12.10
2014,04,15,10,10,12.30
2014,04,15,10,11,12.40
2014,04,15,10,12,12.50
2014,04,15,10,13,12.70
2014,04,15,10,14,12.80
2014,04,15,10,15,12.90
2014,04,15,10,16,13.10
2014,04,15,10,17,13.10
2014,04,15,10,18,13.10
2014,04,15,10,19,13.10
2014,04,15,10,20,13.00
2014,04,15,10,21,13.00
2014,04,15,10,22,13.00
2014,04,15,10,23,13.00
2014,04,15,10,24,13.00
2014,04,15,10,25,13.00
2014,04,15,10,26,13.00
2014,04,15,10,27,13.10
2014,04,15,10,28,13.10
2014,04,15,10,29,13.00
2014,04,15,10,30,13.00
2014,04,15,10,31,13.10
2014,04,15,10,32,13.10
2014,04,15,10,33,13.10
2014,04,15,10,34,13.00
2014,04,15,10,35,12.90
2014,04,15,10,36,12.90
2014,04,15,10,37,12.90
2014,04,15,10,38,12.90
2014,04,15,10,39,13.00
2014,04,15,10,40,13.00
2014,04,15,10,41,13.00
2014,04,15,10,42,13.10
2014,04,15,10,43,13.10
2014,04,15,10,44,13.00
2014,04,15,10,45,13.00
2014,04,15,10,46,12.80
2014,04,15,10,47,12.70
2014,04,15,10,48,12.70
2014,04,15,10,49,12.60
2014,04,15,10,50,12.60
2014,04,15,10,51,12.60
2014,04,15,10,52,12.60
2014,04,15,10,53,12.60
2014,04,15,10,54,12.50
2014,04,15,10,55,12.50
2014,04,15,10,56,12.50
2014,04,15,10,57,12.50
2014,04,15,10,58,12.50
2014,04,15,10,59,12.50
2014,04,15,11,00,12.50
2014,04,15,11,01,12.50
2014,04,15,11,02,12.50
2014,04,15,11,03,12.50
2014,04,15,11,04,12.50
2014,04,15,11,05,12.40
2014,04,15,11,06,12.40
2014,04,15,11,07,12.40
2014,04,15,11,08,12.30
2014,04,15,11,09,12.30
2014,04,15,11,10,12.40
2014,04,15,11,11,12.40
2014,04,15,11,12,12.50
2014,04,15,11,13,12.50
2014,04,15,11,14,12.60
2014,04,15,11,15,12.60
2014,04,15,11,16,12.70
2014,04,15,11,17,12.70
2014,04,15,11,18,12.80
2014,04,15,11,19,12.90
2014,04,15,11,20,12.90
2014,04,15,11,21,13.00
2014,04,15,11,22,13.10
2014,04,15,11,23,13.10
2014,04,15,11,24,13.20
2014,04,15,11,25,13.30
2014,04,15,11,26,13.30
2014,04,15,11,27,13.30
2014,04,15,11,28,13.30
2014,04,15,11,29,13.20
2014,04,15,11,30,13.20
2014,04,15,11,31,13.10
2014,04,15,11,32,13.00
2014,04,15,11,33,13.00
2014,04,15,11,34,13.00
2014,04,15,11,35,13.10
2014,04,15,11,36,13.00
2014,04,15,11,37,13.00
2014,04,15,11,38,13.10
2014,04,15,11,39,13.20
2014,04,15,11,40,13.20
2014,04,15,11,41,13.10
2014,04,15,11,42,13.10
2014,04,15,11,43,13.00
2014,04,15,11,44,12.90
2014,04,15,11,45,12.80
2014,04,15,11,46,12.70
2014,04,15,11,47,12.70
2014,04,15,11,48,12.60
2014,04,15,11,49,12.60
2014,04,15,11,50,12.60
2014,04,15,11,51,12.60
2014,04,15,11,52,12.50
2014,04,15,11,53,12.50
2014,04,15,11,54,12.40
2014,04,15,11,55,12.40
2014,04,15,11,56,12.40
2014,04,15,11,57,12.40
2014,04,15,11,58,12.40
2014,04,15,11,59,12.40
2014,04,15,12,00,12.50
2014,04,15,12,01,12.50
2014,04,15,12,02,12.50
2014,04,15,12,03,12.50
2014,04,15,12,04,12.50
2014,04,15,12,05,12.50
2014,04,15,12,06,12.40
2014,04,15,12,07,12.40
2014,04,15,12,08,12.30
2014,04,15,12,09,12.40
2014,04,15,12,10,12.40
2014,04,15,12,11,12.40
2014,04,15,12,12,12.40
2014,04,15,12,13,12.40
2014,04,15,12,14,12.50
2014,04,15,12,15,12.50
2014,04,15,12,16,12.60
2014,04,15,12,17,12.60
2014,04,15,12,18,12.70
2014,04,15,12,19,12.70
2014,04,15,12,20,12.70
2014,04,15,12,21,12.70
2014,04,15,12,22,12.70
2014,04,15,12,23,12.70
2014,04,15,12,24,12.70
2014,04,15,12,25,12.70
2014,04,15,12,26,12.70
2014,04,15,12,27,12.70
2014,04,15,12,28,12.70
2014,04,15,12,29,12.70
2014,04,15,12,30,12.70
2014,04,15,12,31,12.70
2014,04,15,12,32,12.60
2014,04,15,12,33,12.60
2014,04,15,12,34,12.60
2014,04,15,12,35,12.60
2014,04,15,12,36,12.60
2014,04,15,12,37,12.60
2014,04,15,12,38,12.60
2014,04,15,12,39,12.70
2014,04,15,12,40,12.70
2014,04,15,12,41,12.60
2014,04,15,12,42,12.60
2014,04,15,12,43,12.70
2014,04,15,12,44,12.60
2014,04,15,12,45,12.60
2014,04,15,12,46,12.60
2014,04,15,12,47,12.60
2014,04,15,12,48,12.60
2014,04,15,12,49,12.60
2014,04,15,12,50,12.60
2014,04,15,12,51,12.70
2014,04,15,12,52,12.70
2014,04,15,12,53,12.70
2014,04,15,12,54,12.80
2014,04,15,12,55,12.80
2014,04,15,12,56,12.70
2014,04,15,12,57,12.70
2014,04,15,12,58,12.70
2014,04,15,12,59,12.70
2014,04,15,13,00,12.60
2014,04,15,13,01,12.60
2014,04,15,13,02,12.60
2014,04,15,13,03,12.60
2014,04,15,13,04,12.60
2014,04,15,13,05,12.60
2014,04,15,13,06,12.60
2014,04,15,13,07,12.60
2014,04,15,13,08,12.60
2014,04,15,13,09,12.60
2014,04,15,13,10,12.60
2014,04,15,13,11,12.60
2014,04,15,13,12,12.70
2014,04,15,13,13,12.70
2014,04,15,13,14,12.80
2014,04,15,13,15,12.80
2014,04,15,13,16,12.80
2014,04,15,13,17,12.80
2014,04,15,13,18,12.80
2014,04,15,13,19,12.80
2014,04,15,13,20,12.90
2014,04,15,13,21,12.90
2014,04,15,13,22,12.90
2014,04,15,13,23,13.00
2014,04,15,13,24,13.10
2014,04,15,13,25,13.20
2014,04,15,13,26,13.20
2014,04,15,13,27,13.20
2014,04,15,13,28,13.20
2014,04,15,13,29,13.30
2014,04,15,13,30,13.40
2014,04,15,13,31,13.40
2014,04,15,13,32,13.40
2014,04,15,13,33,13.50
2014,04,15,13,34,13.60
2014,04,15,13,35,13.60
2014,04,15,13,36,13.70
2014,04,15,13,37,13.70
2014,04,15,13,38,13.70
2014,04,15,13,39,13.70
2014,04,15,13,40,13.70
2014,04,15,13,41,13.80
2014,04,15,13,42,13.80
2014,04,15,13,43,13.80
2014,04,15,13,44,13.80
2014,04,15,13,45,13.70
2014,04,15,13,46,13.70
2014,04,15,13,47,13.80
2014,04,15,13,48,13.80
2014,04,15,13,49,13.90
2014,04,15,13,50,13.90
2014,04,15,13,51,13.80
2014,04,15,13,52,13.70
2014,04,15,13,53,13.70
2014,04,15,13,54,13.60
2014,04,15,13,55,13.60
2014,04,15,13,56,13.50
2014,04,15,13,57,13.50
2014,04,15,13,58,13.50
2014,04,15,13,59,13.40
2014,04,15,14,00,13.50
2014,04,15,14,01,13.60
2014,04,15,14,02,13.60
2014,04,15,14,03,13.60
2014,04,15,14,04,13.60
2014,04,15,14,05,13.60
2014,04,15,14,06,13.60
2014,04,15,14,07,13.60
2014,04,15,14,08,13.60
2014,04,15,14,09,13.60
2014,04,15,14,10,13.50
2014,04,15,14,11,13.50
2014,04,15,14,12,13.40
2014,04,15,14,13,13.40
2014,04,15,14,14,13.40
2014,04,15,14,15,13.40
2014,04,15,14,16,13.40
2014,04,15,14,17,13.40
2014,04,15,14,18,13.40
2014,04,15,14,19,13.30
2014,04,15,14,20,13.30
2014,04,15,14,21,13.20
2014,04,15,14,22,13.20
2014,04,15,14,23,13.20
2014,04,15,14,24,13.10
2014,04,15,14,25,13.10
2014,04,15,14,26,13.10
2014,04,15,14,27,13.10
2014,04,15,14,28,13.20
2014,04,15,14,29,13.20
2014,04,15,14,30,13.10
2014,04,15,14,31,13.10
2014,04,15,14,32,13.10
2014,04,15,14,33,13.00
2014,04,15,14,34,13.00
2014,04,15,14,35,13.10
2014,04,15,14,36,13.20
2014,04,15,14,37,13.30
2014,04,15,14,38,13.30
2014,04,15,14,39,13.30
2014,04,15,14,40,13.30
2014,04,15,14,41,13.30
2014,04,15,14,42,13.30
2014,04,15,14,43,13.30
2014,04,15,14,44,13.30
2014,04,15,14,45,13.40
2014,04,15,14,46,13.40
2014,04,15,14,47,13.40
2014,04,15,14,48,13.40
2014,04,15,14,49,13.40
2014,04,15,14,50,13.30
2014,04,15,14,51,13.30
2014,04,15,14,52,13.30
2014,04,15,14,53,13.30
2014,04,15,14,54,13.30
2014,04,15,14,55,13.20
2014,04,15,14,56,13.20
2014,04,15,14,57,13.20
2014,04,15,14,58,13.20
2014,04,15,14,59,13.10
2014,04,15,15,00,13.10
2014,04,15,15,01,13.00
2014,04,15,15,02,13.10
2014,04,15,15,03,13.10
2014,04,15,15,04,13.10
2014,04,15,15,05,13.10
2014,04,15,15,06,13.10
2014,04,15,15,07,13.10
2014,04,15,15,08,13.10
2014,04,15,15,09,13.20
2014,04,15,15,10,13.20
2014,04,15,15,11,13.20
2014,04,15,15,12,13.20
2014,04,15,15,13,13.20
2014,04,15,15,14,13.20
2014,04,15,15,15,13.20
2014,04,15,15,16,13.20
2014,04,15,15,17,13.30
2014,04,15,15,18,13.30
2014,04,15,15,19,13.30
2014,04,15,15,20,13.40
2014,04,15,15,21,13.40
2014,04,15,15,22,13.40
2014,04,15,15,23,13.40
2014,04,15,15,24,13.30
2014,04,15,15,25,13.30
2014,04,15,15,26,13.30
2014,04,15,15,27,13.30
2014,04,15,15,28,13.30
2014,04,15,15,29,13.30
2014,04,15,15,30,13.30
2014,04,15,15,31,13.30
2014,04,15,15,32,13.30
2014,04,15,15,33,13.40
2014,04,15,15,34,13.50
2014,04,15,15,35,13.50
2014,04,15,15,36,13.60
2014,04,15,15,37,13.60
2014,04,15,15,38,13.60
2014,04,15,15,39,13.70
2014,04,15,15,40,13.70
2014,04,15,15,41,13.70
2014,04,15,15,42,13.70
2014,04,15,15,43,13.70
2014,04,15,15,44,13.60
2014,04,15,15,45,13.50
2014,04,15,15,46,13.50
2014,04,15,15,47,13.40
2014,04,15,15,48,13.40
2014,04,15,15,49,13.30
2014,04,15,15,50,13.30
2014,04,15,15,51,13.20
2014,04,15,15,52,13.20
2014,04,15,15,53,13.20
2014,04,15,15,54,13.20
2014,04,15,15,55,13.30
2014,04,15,15,56,13.30
2014,04,15,15,57,13.30
2014,04,15,15,58,13.30
2014,04,15,15,59,13.20
2014,04,15,16,00,13.20
2014,04,15,16,01,13.20
2014,04,15,16,02,13.20
2014,04,15,16,03,13.20
2014,04,15,16,04,13.10
2014,04,15,16,05,13.10
2014,04,15,16,06,13.10
2014,04,15,16,07,13.20
2014,04,15,16,08,13.10
2014,04,15,16,09,13.10
2014,04,15,16,10,13.10
2014,04,15,16,11,13.10
2014,04,15,16,12,13.10
2014,04,15,16,13,13.10
2014,04,15,16,14,13.00
2014,04,15,16,15,13.00
2014,04,15,16,16,13.00
2014,04,15,16,17,13.00
2014,04,15,16,18,13.00
2014,04,15,16,19,13.00
2014,04,15,16,20,13.00
2014,04,15,16,21,13.10
2014,04,15,16,22,13.10
2014,04,15,16,23,13.10
2014,04,15,16,24,13.10
2014,04,15,16,25,13.10
2014,04,15,16,26,13.10
2014,04,15,16,27,13.10
2014,04,15,16,28,13.10
2014,04,15,16,29,13.20
2014,04,15,16,30,13.20
2014,04,15,16,31,13.20
2014,04,15,16,32,13.20
2014,04,15,16,33,13.20
2014,04,15,16,34,13.20
2014,04,15,16,35,13.20
2014,04,15,16,36,13.20
2014,04,15,16,37,13.20
2014,04,15,16,38,13.20
2014,04,15,16,39,13.20
2014,04,15,16,40,13.20
2014,04,15,16,41,13.20
2014,04,15,16,42,13.20
2014,04,15,16,43,13.20
2014,04,15,16,44,13.20
2014,04,15,16,45,13.20
2014,04,15,16,46,13.20
2014,04,15,16,47,13.30
2014,04,15,16,48,13.30
2014,04,15,16,49,13.30
2014,04,15,16,50,13.30
2014,04,15,16,51,13.30
2014,04,15,16,52,13.30
2014,04,15,16,53,13.30
2014,04,15,16,54,13.30
2014,04,15,16,55,13.40
2014,04,15,16,56,13.40
2014,04,15,16,57,13.40
2014,04,15,16,58,13.30
2014,04,15,16,59,13.30
2014,04,15,17,00,13.30
2014,04,15,17,01,13.30
2014,04,15,17,02,13.20
2014,04,15,17,03,13.20
2014,04,15,17,04,13.10
2014,04,15,17,05,13.10
2014,04,15,17,06,13.10
2014,04,15,17,07,13.10
2014,04,15,17,08,13.20
2014,04,15,17,09,13.20
2014,04,15,17,10,13.20
2014,04,15,17,11,13.10
2014,04,15,17,12,13.10
2014,04,15,17,13,13.00
2014,04,15,17,14,12.90
2014,04,15,17,15,12.90
2014,04,15,17,16,12.90
2014,04,15,17,17,12.90
2014,04,15,17,18,12.90
2014,04,15,17,19,13.00
2014,04,15,17,20,13.00
2014,04,15,17,21,13.10
2014,04,15,17,22,13.10
2014,04,15,17,23,13.10
2014,04,15,17,24,13.10
2014,04,15,17,25,13.10
2014,04,15,17,26,13.00
2014,04,15,17,27,13.00
2014,04,15,17,28,12.90
2014,04,15,17,29,12.90
2014,04,15,17,30,12.80
2014,04,15,17,31,12.80
2014,04,15,17,32,12.80
2014,04,15,17,33,12.80
2014,04,15,17,34,12.80
2014,04,15,17,35,12.80
2014,04,15,17,36,12.70
2014,04,15,17,37,12.70